Preview of NWS' New Version of Forecast
This preview is not operational and should not be used for support decisions.
Latest weather observations around

Chanute, Chanute Martin Johnson Airport (KCNU)

Using International System of Units (Switch to English Units)
Date/ Time (CDT) Wind (kph) Vis. (km) Weather Sky Cond. Temp (°C) Rel. Humidity Wind Chill (°C) Heat Index (°C) Pressure Precip. (cm)
Air Dwpt 6 hour Altimeter (hPa) Sea level (hPa) 1 hr 3 hr 6 hr
Max Min
Apr 20 20:52 SSE 15 16.09 Clear CLR 18 8     52%     1010.8 1010.1      
Apr 20 19:52 SSE 15 16.09 Clear CLR 21 8     45%     1010.5 1009.8      
Apr 20 18:52 SSE 18 16.09 Clear CLR 23 7     36%   23 1010.8 1010.3      
Apr 20 17:52 S 21 16.09 Clear CLR 25 6     30%   24 1011.2 1010.6      
Apr 20 16:52 S 22 16.09 Clear CLR 25 6     29%   24 1011.5 1011.1      
Apr 20 15:52 S 24 16.09 Clear CLR 25 6     29%   24 1012.5 1012.1      
Apr 20 14:52 SSW 22 16.09 Clear CLR 24 6     31%   23 1013.6 1013.1      
Apr 20 13:52 S 18 16.09 Clear CLR 23 4     29%   22 1014.2 1013.8      
Apr 20 12:52 S 21 16.09 Clear CLR 22 4     31%   21 1015.2 1014.8      
Apr 20 11:52 SSW 15 16.09 Clear CLR 20 4     35%     1015.9 1015.7      
Apr 20 10:52 SSW 17 16.09 Clear CLR 18 3     37%     1016.3 1016      
Apr 20 09:52 SW 15 16.09 Clear CLR 17 3     41%     1016.3 1015.9      
Apr 20 08:52 SSW 8 16.09 Clear CLR 14 5     55%     1016.3 1015.9      
Apr 20 07:52 W 5 16.09 Clear CLR 9 4     71% 9   1016.3 1016.1      
Apr 20 06:52 Calm 16.09 Clear CLR 4 2     83%     1015.9 1015.7      
Apr 20 05:52 W 8 16.09 Clear CLR 3 1     85% 1   1015.9 1015.6      
Apr 20 04:52 Calm 16.09 Clear CLR 4 1     79%     1015.2 1015      
Apr 20 03:52 Calm 16.09 Clear CLR 6 2     76%     1015.2 1015.1      
Apr 20 02:52 Calm 16.09 Clear CLR 6 2     76%     1015.6 1015.2      
Apr 20 01:52 WNW 5 16.09 Clear CLR 6 2     76% 5   1015.9 1015.5      
Apr 20 00:52 Calm 16.09 Clear CLR 6 2     79%     1015.9 1015.8      
Apr 19 23:52 Calm 16.09 Clear CLR 6 2     79%     1015.9 1015.9      
Apr 19 22:52 WNW 8 16.09 Clear CLR 8 2     68% 7   1015.9 1015.9      
Apr 19 21:52 Calm 16.09 Clear CLR 10 2     58%     1015.9 1015.8      
Apr 19 20:52 NNW 8 16.09 Clear CLR 13 1     43%     1015.6 1015.2      
Apr 19 19:52 NNW 9 16.09 Clear CLR 15 1     37%     1015.6 1015.3      
Apr 19 18:52 N 17 16.09 Clear CLR 18 1     33%     1015.6 1015.2      
Apr 19 17:52 N 26 16.09 Clear CLR 18 1     32%     1015.6 1015.1      
Apr 19 16:52 N 26 16.09 Clear CLR 18 1     32%     1015.6 1015.2      
Apr 19 15:52 NNW 33 16.09 Mostly Clear and Windy FEW060 18 2     33%     1015.9 1015.6      
Apr 19 14:52 NW 33 16.09 Mostly Clear and Windy FEW060 17 2     37%     1016.6 1016.3      
Apr 19 13:52 NNW 26 16.09 Mostly Clear FEW055 17 2     37%     1016.9 1016.5      
Apr 19 12:52 N 33 16.09 Mostly Clear and Windy FEW050 16 2     38%     1017.3 1017      
Apr 19 11:52 N 26 16.09 Partly Cloudy SCT048 16 3     41%     1018 1017.5      
Apr 19 10:52 N 26 16.09 Mostly Clear FEW040 14 4     49%     1018 1017.6      
Apr 19 09:52 N 30 16.09 Clear CLR 13 4     57%     1018 1017.5      
Apr 19 08:52 N 17 16.09 Clear CLR 11 4     63%     1017.6 1017.4      
Apr 19 07:52 N 21 16.09 Clear CLR 9 4     69% 7   1017.3 1016.8      
Apr 19 06:52 NNW 15 16.09 Clear CLR 8 4     76% 5   1016.3 1016     0
Apr 19 05:52 NNW 17 16.09 Clear CLR 8 4     74% 6   1015.6 1015.1      
Apr 19 04:52 NNW 17 16.09 Clear CLR 9 4     71% 6   1014.9 1014.6      
Apr 19 03:52 N 18 16.09 Mostly Clear FEW065 10 4     66%     1014.6 1014.2   0  
Apr 19 02:52 NNW 11 16.09 Partly Cloudy SCT090 10 5     71%     1014.2 1013.8      
Apr 19 01:52 N 11 16.09 Partly Cloudy SCT100 11 5     68%     1013.9 1013.5 0    
Apr 19 00:52 N 15 16.09 Cloudy BKN055 BKN075 OVC085 12 5     61%     1013.9 1013.3     0
Apr 18 23:52 N 8 16.09 Mostly Cloudy SCT060 BKN100 12 6     66%     1012.9 1012.5      
Apr 18 22:52 N 8 16.09 Partly Cloudy FEW070 SCT090 12 6     66%     1012.2 1012 0    
Apr 18 21:52 N 8 16.09 Cloudy BKN070 OVC100 13 6     60%     1011.9 1011.4      
Apr 18 20:52 NW 11 16.09 Cloudy SCT075 OVC090 14 6     57%     1011.2 1010.8      
Apr 18 19:52 N 9 16.09 Mostly Cloudy BKN085 15 4     49%     1010.5 1010.2      
Apr 18 18:52 N 18 16.09 Clear CLR 17 3     41%     1010.2 1009.8      
Apr 18 17:52 NNE 30 16.09 Clear CLR 19 4     37%     1009.8 1009.4      
Apr 18 16:52 N 22 16.09 Partly Cloudy FEW060 SCT075 18 4     38%     1010.2 1009.5      
Apr 18 15:52 NNW 32 16.09 Partly Cloudy and Windy SCT060 18 3     38%     1010.2 1009.6      
Apr 18 14:52 N 32 16.09 Partly Cloudy and Windy SCT049 19 6     42%     1010.5 1009.7      
Apr 18 13:52 N 28 16.09 Partly Cloudy SCT042 17 6     48%     1011.2 1010.5      
Apr 18 12:52 NNW 32 16.09 Mostly Clear and Windy FEW038 16 7     54%     1011.5 1011.1      
Apr 18 11:52 N 28 16.09 Mostly Cloudy FEW027 BKN034 15 7     58%     1012.5 1011.9      
Apr 18 11:49 N 26 16.09 Mostly Cloudy FEW028 BKN034 15 7     59%     1012.2        
Apr 18 11:01 NNW 30 16.09 Mostly Cloudy BKN025 14 7     62%     1012.2        
Apr 18 10:52 N 24 16.09 Partly Cloudy SCT022 SCT028 14 7     62%     1012.2 1011.5      
Apr 18 10:45 N 22 16.09 Partly Cloudy SCT022 SCT028 13 6     62%     1012.2        
Apr 18 10:36 N 24 16.09 Mostly Cloudy BKN024 12 6     66%     1011.9        
Apr 18 09:59 N 30 16.09 Partly Cloudy SCT020 12 6     69%     1011.5        
Apr 18 09:52 N 28 16.09 Mostly Cloudy BKN020 12 6     69%     1011.9 1011.1      
Apr 18 08:52 N 24 16.09 Mostly Cloudy BKN020 12 7     71%     1011.5 1010.8      
Apr 18 08:33 N 33 16.09 Mostly Cloudy and Windy BKN020 11 7     74%     1011.2        
Apr 18 07:52 N 18 16.09 Mostly Clear FEW021 11 7     74%     1011.2 1010.4      
Apr 18 06:52 N 15 16.09 Clear CLR 11 7     77%     1009.8 1009     0
Apr 18 05:52 N 18 16.09 Cloudy FEW020 OVC110 12 8     77%     1007.5 1006.7      
Apr 18 04:52 N 17 16.09 Clear CLR 12 9     83%     1006.4 1005.6      
Apr 18 04:02 N 24 16.09 Partly Cloudy SCT016 12 9     80%     1006.8        
Apr 18 03:52 N 26 16.09 Mostly Cloudy BKN016 12 9     80%     1006.8 1005.9   0  
Apr 18 02:52 N 18 16.09 Cloudy OVC013 13 11     84%     1006.8 1005.8      
Apr 18 02:11 N 21 16.09 Mostly Cloudy BKN011 14 11     83%     1006.1        
Apr 18 01:52 NNE 26 16.09 Mostly Clear FEW027 14 12     87%     1004.8 1003.7 0    
Apr 18 01:34 NNE 30 9.66 Light Rain and Fog/Mist FEW019 BKN033 BKN044 14 12     87%     1004.8   0    
Apr 18 01:11 NNW 26 6.44 Rain and Fog/Mist FEW007 BKN033 OVC044 15 13     87%     1008.8   0    
Apr 18 00:57 N 24 3.22 Heavy Rain and Fog/Mist SCT006 BKN034 OVC050 16 14     90%     1007.5   0    
Apr 18 00:51 NNW 11 3.22 Heavy Rain and Fog/Mist SCT006 BKN013 OVC034 16 14     90%     1007.8   2   3
Apr 18 00:50 NNW 13 3.22 Heavy Rain and Fog/Mist SCT006 BKN013 OVC034 16 14     88%     1008.1   2    
Apr 18 00:44 SW 13 2.41 Heavy Rain and Fog/Mist FEW008 BKN020 OVC034 16 14     90%     1008.1   1    
Apr 18 00:32   4.02 Heavy Rain and Fog/Mist FEW005 BKN009 OVC039 16 14     87%     1008.1   1    
Apr 18 00:23 N 8 4.83 Thunderstorms and Rain and Fog/Mist SCT007 BKN013 OVC039 16 14     90%     1007.1   1    
Apr 18 00:18 N 13 3.22 Thunderstorms and Heavy Rain and Fog/Mist BKN007 BKN013 OVC043 16 14     90%     1006.4   1    
Apr 18 00:14 NNE 15 2.41 Thunderstorms and Heavy Rain and Fog/Mist BKN007 OVC013 16 14     90%     1006.4   1    
Apr 18 00:04 NNE 8 4.02 Thunderstorms and Heavy Rain and Fog/Mist BKN007 BKN013 OVC055 16 14     87%     1006.4   0    
Apr 18 00:01 9 4.83 Thunderstorms and Heavy Rain and Fog/Mist BKN010 BKN055 OVC080 16 14     87%     1006.1   0    
Apr 17 23:52 ENE 21 4.83 Thunderstorms and Heavy Rain and Fog/Mist SCT012 BKN055 OVC080 16 14     87%     1004.8 1004 1    
Apr 17 23:39 NNE 28 11.27 Thunderstorms and Rain SCT047 BKN060 OVC100 16 14     87%     1004.1   1    
Apr 17 23:31 NNE 28 12.87 Light Rain SCT039 BKN055 OVC075 16 14     87%     1004.4   1    
Apr 17 23:24 NNE 21 4.02 Heavy Rain and Fog/Mist BKN036 OVC060 16 14     87%     1005.1   1    
Apr 17 23:16   3.22 Thunderstorms and Heavy Rain and Fog/Mist FEW020 BKN038 OVC050 16 14     90%     1005.1   1    
Apr 17 23:08   2.82 Thunderstorms and Heavy Rain SCT022 BKN036 OVC055 17 14     84%     1005.8   1    
Apr 17 23:04   3.22 Thunderstorms and Heavy Rain FEW014 BKN027 OVC040 17 13     78%     1005.1   0    
Apr 17 22:52 S 24 16.09 Thunderstorms FEW015 BKN022 OVC027 21 17     78%     1004.8 1003.6      
Apr 17 22:49 SSE 17 16.09 Clear   21 17     78%     1004.4        
Apr 17 21:52 S 28 16.09 Cloudy BKN016 OVC085 22 17     76%   22 1004.4 1003.4      
Apr 17 21:42 S 21 16.09 Mostly Cloudy BKN017 22 17     76%   22 1004.8        
Notice The following observation data may not be complete
May 15 02:24   16.09 Light Rain OVC110          %         0    
May 15 02:09   12.87 Thunderstorms and Rain SCT090 OVC110 18 18     100%     1015.6   0    
May 14 20:13 E 17 16.09 Thunderstorms SCT017 20 19     93%     1010.8   0    
May 14 19:52   1.21 Thunderstorms and Heavy Rain and Fog/Mist OVC021 20 19     93%     1010.5 1009.6 2    
May 13 14:52 S 30 16.09 Clear CLR 31 22     59%   34 1013.9 1012.6      
May 13 11:52 S 28 16.09 Clear CLR 29 21     63%   31 1015.2 1014.1      
May 11 10:52   16.09 Clear CLR 26 18     62%   26 1009.2 1008.1      
Jun 12 00:52 S 18 16.09 Clear CLR 24 18     71%   24 1012.5 1011.3      
Jun 11 15:52   16.09 Clear CLR 32 20     50%   34 1010.5 1009.2      
Jun 11 13:52   16.09 Clear CLR 32 21     52%   34 1011.5 1010      
Jun 11 11:52   16.09 Clear CLR 30 19     53%   32 1011.5 1010.2      
Jun 10 06:52 SSE 13 16.09 Mostly Clear FEW035 19 16     84%     1010.8 1009.9      
Jun 10 02:52 S 15 16.09 Clear CLR 19 14     73%     1010.2 1008.9      
Jun 08 16:52 SSE 13 16.09 Clear CLR 28 11     35%   27 1014.6 1013.6      
Jun 07 23:52 Calm 16.09 Clear CLR 14 11     78%     1017.6 1017